VNREDSAT 1

Last updated on Mon Jun 22 2026 00:02:51 GMT+0000 (Coordinated Universal Time)

1 39160U 13021B 26172.46066258 .00000527 00000+0 10708-3 0 9993 2 39160 97.9074 225.7135 0001739 88.4523 271.6880 14.64861023700916
UTC large
Height (km)
Speed (km/s)
/
Latitude / Longitude
Inclination (degrees)
Orbital Period (minutes)
Azimuth
Elevation
Range (km)
Doppler Factor

Next 0 passes for location: London (51.5072 / 0.1276)

No passes found over London.
VNREDSAT 1